K4FB Weather Reports


time (UTC)temp
C
wind
direction
speed
KPH
gust
KPH
rain 1hr
cm
rain 24hr
cm
rain mn
cm
humidity
%
barometer
mb
20260506151003 30 199 4.8 20.9 0.00 0.00 0.00 59 1018.1
20260506150505 30 160 6.4 17.7 0.00 0.00 0.00 62 1018.1
20260506150022 29 157 4.8 17.7 0.00 0.00 0.00 62 1018.1
20260506145509 29 188 6.4 16.1 0.00 0.00 0.00 63 1018.1
20260506145003 29 188 6.4 14.5 0.00 0.00 0.00 64 1018.1
20260506144535 29 163 4.8 12.9 0.00 0.00 0.00 67 1018.1
20260506144007 28 188 4.8 12.9 0.00 0.00 0.00 69 1018.3
20260506143504 28 176 4.8 11.3 0.00 0.00 0.00 70 1018.2
20260506143013 28 160 3.2 14.5 0.00 0.00 0.00 70 1018.2
20260506142505 28 205 8.0 14.5 0.00 0.00 0.00 71 1018.2
20260506142008 27 175 3.2 11.3 0.00 0.00 0.00 70 1018.3
20260506141512 27 123 6.4 14.5 0.00 0.00 0.00 72 1018.3
20260506141009 27 159 4.8 16.1 0.00 0.00 0.00 72 1018.4
20260506140028 26 190 3.2 17.7 0.00 0.00 0.00 74 1018.2
20260506135504 26 142 6.4 17.7 0.00 0.00 0.00 75 1018.2
20260506134003 25 201 6.4 17.7 0.00 0.00 0.00 80 1018.2
20260506133509 25 62 3.2 14.5 0.00 0.00 0.00 81 1018.3
20260506133020 25 164 6.4 14.5 0.00 0.00 0.00 81 1018.2
20260506132511 24 148 3.2 11.3 0.00 0.00 0.00 83 1018.1
20260506132005 24 123 3.2 11.3 0.00 0.00 0.00 85 1018.1
20260506131523 23 80 4.8 12.9 0.00 0.00 0.00 86 1018.0
20260506130503 22 156 3.2 11.3 0.00 0.00 0.00 89 1018.0
20260506130018 22 165 4.8 11.3 0.00 0.00 0.00 90 1017.9
20260506125506 22 205 3.2 14.5 0.00 0.00 0.00 91 1017.8
20260506125008 21 144 6.4 14.5 0.00 0.00 0.00 91 1017.7
20260506124515 21 130 3.2 12.9 0.00 0.00 0.00 93 1017.7
20260506124008 20 117 4.8 9.7 0.00 0.00 0.00 93 1017.7
20260506123508 20 152 1.6 8.0 0.00 0.00 0.00 94 1017.8
20260506123015 20 140 1.6 4.8 0.00 0.00 0.00 95 1017.7
20260506122507 19 148 1.6 4.8 0.00 0.00 0.00 95 1017.7
20260506122007 19 129 0.0 6.4 0.00 0.00 0.00 96 1017.7
20260506121523 18 167 0.0 6.4 0.00 0.00 0.00 96 1017.6
20260506120507 17 154 0.0 3.2 0.00 0.00 0.00 95 1017.5
20260506120023 17 85 0.0 0.0 0.00 0.00 0.00 94 1017.6
20260506115509 17 85 0.0 0.0 0.00 0.00 0.00 94 1017.5
20260506114521 17 85 0.0 0.0 0.00 0.00 0.00 94 1017.5
20260506114012 17 85 0.0 0.0 0.00 0.00 0.00 94 1017.4
20260506113507 16 85 0.0 0.0 0.00 0.00 0.00 94 1017.4
20260506113020 16 85 0.0 0.0 0.00 0.00 0.00 94 1017.2
20260506112508 16 85 0.0 0.0 0.00 0.00 0.00 94 1017.2
20260506112007 16 85 0.0 0.0 0.00 0.00 0.00 93 1017.1
20260506111518 16 85 0.0 0.0 0.00 0.00 0.00 93 1017.1
20260506111015 16 85 0.0 0.0 0.00 0.00 0.00 93 1017.1
20260506110513 16 85 0.0 0.0 0.00 0.00 0.00 93 1017.2
20260506110014 16 85 0.0 0.0 0.00 0.00 0.00 93 1017.1
20260506104524 16 85 0.0 0.0 0.00 0.00 0.00 92 1016.7
20260506104007 16 85 0.0 0.0 0.00 0.00 0.00 92 1016.7
20260506103025 16 85 0.0 0.0 0.00 0.00 0.00 92 1016.6
20260506102507 16 85 0.0 0.0 0.00 0.00 0.00 92 1016.6
20260506101529 16 85 0.0 0.0 0.00 0.00 0.00 91 1016.7
20260506101012 16 85 0.0 0.0 0.00 0.00 0.00 91 1016.7
20260506100505 16 85 0.0 0.0 0.00 0.00 0.00 91 1016.7
20260506100024 16 85 0.0 0.0 0.00 0.00 0.00 91 1016.7
20260506095510 16 85 0.0 0.0 0.00 0.00 0.00 91 1016.7
20260506095010 16 85 0.0 0.0 0.00 0.00 0.00 91 1016.6
20260506094008 16 85 0.0 0.0 0.00 0.00 0.00 91 1016.6
20260506093509 16 85 0.0 0.0 0.00 0.00 0.00 91 1016.5
20260506093030 16 85 0.0 0.0 0.00 0.00 0.00 91 1016.5
20260506092011 16 85 0.0 0.0 0.00 0.00 0.00 91 1016.4
20260506091524 16 85 0.0 0.0 0.00 0.00 0.00 91 1016.4
20260506091012 16 85 0.0 0.0 0.00 0.00 0.00 91 1016.3
20260506090513 16 85 0.0 0.0 0.00 0.00 0.00 91 1016.4
20260506090029 16 85 0.0 0.0 0.00 0.00 0.00 91 1016.3
20260506085511 16 85 0.0 0.0 0.00 0.00 0.00 91 1016.4
20260506085008 16 85 0.0 0.0 0.00 0.00 0.00 91 1016.3
20260506084536 16 85 0.0 0.0 0.00 0.00 0.00 91 1016.5
20260506084004 16 85 0.0 0.0 0.00 0.00 0.00 91 1016.5
20260506083007 16 85 0.0 0.0 0.00 0.00 0.00 91 1016.5
20260506082508 16 85 0.0 0.0 0.00 0.00 0.00 91 1016.4
20260506082009 16 85 0.0 0.0 0.00 0.00 0.00 91 1016.5
20260506081507 16 85 0.0 0.0 0.00 0.00 0.00 90 1016.7
20260506081003 16 85 0.0 0.0 0.00 0.00 0.00 90 1016.7
20260506080504 16 85 0.0 0.0 0.00 0.00 0.00 89 1016.5
20260506073504 16 85 0.0 0.0 0.00 0.00 0.00 89 1016.5
20260506073018 16 85 0.0 0.0 0.00 0.00 0.00 89 1016.6
20260506072509 16 85 0.0 0.0 0.00 0.00 0.00 89 1016.7
20260506072004 17 85 0.0 0.0 0.00 0.00 0.00 88 1016.7
20260506071517 17 85 0.0 0.0 0.00 0.00 0.00 88 1016.7
20260506071007 17 85 0.0 0.0 0.00 0.00 0.00 88 1016.8
20260506062502 17 85 0.0 0.0 0.00 0.00 0.00 88 1017.1
20260506062008 17 85 0.0 0.0 0.00 0.00 0.00 88 1017.2
20260506061518 17 85 0.0 0.0 0.00 0.00 0.00 88 1017.2
20260506061004 17 85 0.0 0.0 0.00 0.00 0.00 88 1017.2
20260506060505 17 85 0.0 0.0 0.00 0.00 0.00 88 1017.2
20260506051004 17 85 0.0 0.0 0.00 0.00 0.00 84 1017.7
20260506050510 17 85 0.0 0.0 0.00 0.00 0.00 83 1017.7
20260506045004 18 85 0.0 0.0 0.00 0.00 0.00 82 1017.7
20260506044538 18 85 0.0 0.0 0.00 0.00 0.00 81 1017.8
20260506044004 18 85 0.0 0.0 0.00 0.00 0.00 81 1017.8
20260506043508 18 85 0.0 0.0 0.00 0.00 0.00 81 1017.8
20260506043010 18 85 0.0 0.0 0.00 0.00 0.00 81 1017.7
20260506042505 18 85 0.0 0.0 0.00 0.00 0.00 80 1017.6
20260506041514 18 85 0.0 0.0 0.00 0.00 0.00 80 1017.6
20260506041007 18 85 0.0 0.0 0.00 0.00 0.00 79 1017.7
20260506040505 19 85 0.0 0.0 0.00 0.00 0.00 79 1017.6
20260506040016 19 85 0.0 0.0 0.00 0.00 0.00 79 1017.7
20260506035508 19 85 0.0 0.0 0.00 0.00 0.00 79 1017.7
20260506035009 19 85 0.0 0.0 0.00 0.00 0.00 79 1017.7
20260506034511 19 85 0.0 0.0 0.00 0.00 0.00 79 1017.7
20260506034008 19 85 0.0 0.0 0.00 0.00 0.00 78 1017.7
20260506033514 19 85 0.0 0.0 0.00 0.00 0.00 78 1017.6
20260506033010 19 85 0.0 0.0 0.00 0.00 0.00 78 1017.7
20260506032506 19 85 0.0 0.0 0.00 0.00 0.00 78 1017.9
20260506032003 20 85 0.0 0.0 0.00 0.00 0.00 77 1017.8
20260506031523 20 85 0.0 0.0 0.00 0.00 0.00 77 1017.7
20260506031006 20 85 0.0 0.0 0.00 0.00 0.00 77 1017.7
20260506030504 20 85 0.0 0.0 0.00 0.00 0.00 76 1017.6
20260506030018 20 85 0.0 0.0 0.00 0.00 0.00 75 1017.6
20260506025504 20 85 0.0 0.0 0.00 0.00 0.00 75 1017.7
20260506025008 20 85 0.0 0.0 0.00 0.00 0.00 74 1017.8
20260506024529 20 85 0.0 0.0 0.00 0.00 0.00 74 1017.6
20260506024008 21 85 0.0 0.0 0.00 0.00 0.00 73 1017.5
20260506023505 21 85 0.0 0.0 0.00 0.00 0.00 72 1017.4
20260506023020 21 85 0.0 0.0 0.00 0.00 0.00 72 1017.5
20260506022513 21 85 0.0 0.0 0.00 0.00 0.00 71 1017.6
20260506022013 21 85 0.0 0.0 0.00 0.00 0.00 71 1017.5
20260506021516 21 85 0.0 0.0 0.00 0.00 0.00 70 1017.4
20260506020503 22 85 0.0 0.0 0.00 0.00 0.00 68 1017.3
20260506015504 22 85 0.0 0.0 0.00 0.00 0.00 67 1017.2
20260506015010 22 85 0.0 1.6 0.00 0.00 0.00 67 1017.0
20260506014523 22 85 0.0 3.2 0.00 0.00 0.00 67 1017.0
20260506014005 22 85 0.0 4.8 0.00 0.00 0.00 66 1016.9
20260506013510 23 85 1.6 4.8 0.00 0.00 0.00 66 1016.8
20260506013023 23 98 0.0 6.4 0.00 0.00 0.00 66 1016.6
20260506012505 23 115 1.6 11.3 0.00 0.00 0.00 65 1016.5
20260506012010 23 75 3.2 11.3 0.00 0.00 0.00 65 1016.5
20260506011523 23 74 1.6 11.3 0.00 0.00 0.00 64 1016.4
20260506011011 23 109 3.2 11.3 0.00 0.00 0.00 64 1016.3
20260506010511 23 87 3.2 9.7 0.00 0.00 0.00 63 1016.3
20260506010045 23 81 1.6 11.3 0.00 0.00 0.00 63 1016.2
20260506005006 24 94 6.4 14.5 0.00 0.00 0.00 62 1016.0
20260506004515 24 63 4.8 14.5 0.00 0.00 0.00 61 1015.9
20260506004003 25 71 6.4 14.5 0.00 0.00 0.00 61 1016.0
20260506003502 25 121 4.8 19.3 0.00 0.00 0.00 61 1015.9
20260506003005 25 88 11.3 24.1 0.00 0.00 0.00 60 1015.8
20260506002504 25 39 11.3 24.1 0.00 0.00 0.00 61 1015.7
20260506001002 26 94 8.0 16.1 0.00 0.00 0.00 59 1015.5
20260506000505 26 73 8.0 22.5 0.00 0.00 0.00 58 1015.5
20260505235504 27 31 8.0 20.9 0.00 0.00 0.00 56 1015.3
20260505235003 27 90 9.7 19.3 0.00 0.00 0.00 55 1015.2
20260505234506 27 85 6.4 17.7 0.00 0.00 0.00 54 1015.1
20260505234004 27 75 3.2 12.9 0.00 0.00 0.00 54 1015.1
20260505233507 28 74 6.4 14.5 0.00 0.00 0.00 53 1015.0
20260505233008 28 90 6.4 14.5 0.00 0.00 0.00 52 1014.9
20260505232502 28 126 8.0 16.1 0.00 0.00 0.00 51 1015.0
20260505232005 28 148 6.4 17.7 0.00 0.00 0.00 50 1015.0
20260505231507 28 101 8.0 17.7 0.00 0.00 0.00 49 1015.0
20260505231004 29 75 4.8 11.3 0.00 0.00 0.00 49 1015.0
20260505230503 29 77 1.6 11.3 0.00 0.00 0.00 49 1015.0
20260505230024 29 102 3.2 12.9 0.00 0.00 0.00 47 1015.0
20260505225504 30 67 3.2 12.9 0.00 0.00 0.00 48 1015.1
20260505225003 30 77 6.4 11.3 0.00 0.00 0.00 47 1015.1
20260505224003 30 57 3.2 14.5 0.00 0.00 0.00 46 1015.3
20260505223503 30 85 6.4 14.5 0.00 0.00 0.00 45 1015.2
20260505223014 31 76 6.4 12.9 0.00 0.00 0.00 45 1015.2
20260505222508 31 53 4.8 16.1 0.00 0.00 0.00 45 1015.2
20260505222003 31 115 11.3 16.1 0.00 0.00 0.00 45 1015.1
20260505221507 31 53 4.8 12.9 0.00 0.00 0.00 43 1015.1
20260505221004 31 51 6.4 12.9 0.00 0.00 0.00 43 1015.1
20260505220504 31 104 3.2 12.9 0.00 0.00 0.00 45 1015.1
20260505220008 31 86 6.4 14.5 0.00 0.00 0.00 45 1015.1
20260505215504 31 107 4.8 16.1 0.00 0.00 0.00 45 1015.0
20260505214503 32 26 8.0 16.1 0.00 0.00 0.00 42 1015.1
20260505214003 32 113 6.4 16.1 0.00 0.00 0.00 43 1015.0
20260505213502 32 63 4.8 14.5 0.00 0.00 0.00 44 1015.0
20260505213021 31 71 4.8 14.5 0.00 0.00 0.00 44 1014.9
20260505212506 31 87 6.4 14.5 0.00 0.00 0.00 43 1014.9
20260505212008 31 360 6.4 14.5 0.00 0.00 0.00 41 1014.9
20260505211522 31 338 8.0 14.5 0.00 0.00 0.00 41 1014.9
20260505211003 31 18 3.2 14.5 0.00 0.00 0.00 41 1014.8
20260505210503 32 13 1.6 14.5 0.00 0.00 0.00 42 1014.9
20260505210006 32 49 4.8 16.1 0.00 0.00 0.00 41 1015.0
20260505205504 32 352 3.2 16.1 0.00 0.00 0.00 40 1014.9
20260505205007 32 86 4.8 16.1 0.00 0.00 0.00 41 1014.9
20260505204510 32 80 8.0 16.1 0.00 0.00 0.00 40 1015.0
20260505204005 32 93 3.2 17.7 0.00 0.00 0.00 40 1015.0
20260505203503 32 98 1.6 19.3 0.00 0.00 0.00 42 1015.1
20260505203023 32 45 3.2 19.3 0.00 0.00 0.00 42 1015.1
20260505202006 32 38 6.4 14.5 0.00 0.00 0.00 42 1015.1
20260505201510 32 5 1.6 14.5 0.00 0.00 0.00 44 1015.2
20260505201004 32 53 4.8 16.1 0.00 0.00 0.00 41 1015.2
20260505200508 33 39 6.4 16.1 0.00 0.00 0.00 39 1015.2
20260505200005 33 34 6.4 14.5 0.00 0.00 0.00 40 1015.2
20260505195505 33 42 6.4 19.3 0.00 0.00 0.00 40 1015.2
20260505195004 33 89 9.7 19.3 0.00 0.00 0.00 41 1015.2
20260505194508 33 36 8.0 19.3 0.00 0.00 0.00 39 1015.3
20260505194004 33 98 4.8 14.5 0.00 0.00 0.00 41 1015.3
20260505193505 33 57 1.6 16.1 0.00 0.00 0.00 39 1015.3
20260505193012 33 274 1.6 16.1 0.00 0.00 0.00 43 1015.5
20260505192509 33 52 6.4 16.1 0.00 0.00 0.00 41 1015.5
20260505192005 33 55 9.7 20.9 0.00 0.00 0.00 41 1015.7
20260505191516 33 350 6.4 20.9 0.00 0.00 0.00 41 1015.7
20260505191005 33 32 4.8 17.7 0.00 0.00 0.00 42 1015.8
20260505190507 32 335 6.4 16.1 0.00 0.00 0.00 43 1015.8
20260505190022 33 29 8.0 17.7 0.00 0.00 0.00 43 1015.9
20260505185510 33 44 9.7 17.7 0.00 0.00 0.00 47 1015.8
20260505185009 33 44 4.8 16.1 0.00 0.00 0.00 45 1015.9
20260505184510 32 28 6.4 17.7 0.00 0.00 0.00 43 1015.9
20260505184007 32 71 6.4 17.7 0.00 0.00 0.00 44 1016.0
20260505183502 32 59 4.8 14.5 0.00 0.00 0.00 43 1016.1
20260505182503 32 128 8.0 16.1 0.00 0.00 0.00 46 1016.2
20260505182004 31 78 6.4 16.1 0.00 0.00 0.00 51 1016.3
20260505181004 31 104 8.0 16.1 0.00 0.00 0.00 46 1016.6
20260505180508 31 34 4.8 19.3 0.00 0.00 0.00 49 1016.6
20260505180019 31 87 6.4 19.3 0.00 0.00 0.00 51 1016.6
20260505175504 30 136 9.7 22.5 0.00 0.00 0.00 49 1016.6
20260505175006 30 72 8.0 22.5 0.00 0.00 0.00 52 1016.7
20260505174521 30 67 8.0 19.3 0.00 0.00 0.00 51 1016.8
20260505174012 29 42 11.3 17.7 0.00 0.00 0.00 53 1016.9
20260505173503 28 99 4.8 17.7 0.00 0.00 0.00 55 1016.8
20260505173014 28 22 6.4 11.3 0.00 0.00 0.00 54 1017.0
20260505172504 28 343 3.2 16.1 0.00 0.00 0.00 54 1017.0
20260505172003 28 344 4.8 16.1 0.00 0.00 0.00 53 1017.0
20260505171511 28 85 9.7 16.1 0.00 0.00 0.00 53 1017.1
20260505171004 28 81 8.0 14.5 0.00 0.00 0.00 51 1017.2
20260505170509 28 16 4.8 19.3 0.00 0.00 0.00 50 1017.1
20260505170017 29 120 4.8 19.3 0.00 0.00 0.00 53 1017.1
20260505165509 29 26 9.7 19.3 0.00 0.00 0.00 52 1017.1
20260505165004 29 34 6.4 17.7 0.00 0.00 0.00 53 1017.2
20260505164519 28 54 9.7 20.9 0.00 0.00 0.00 54 1017.2
20260505164004 28 13 9.7 20.9 0.00 0.00 0.00 52 1017.2
20260505163508 28 49 8.0 20.9 0.00 0.00 0.00 52 1017.2
20260505163025 28 42 8.0 19.3 0.00 0.00 0.00 53 1017.2
20260505162505 28 82 8.0 16.1 0.00 0.00 0.00 54 1017.3
20260505162008 28 50 4.8 16.1 0.00 0.00 0.00 55 1017.3
20260505161522 27 74 3.2 20.9 0.00 0.00 0.00 54 1017.3
20260505161007 28 41 11.3 20.9 0.00 0.00 0.00 53 1017.3
20260505160510 28 103 9.7 19.3 0.00 0.00 0.00 53 1017.2
20260505153014 28 109 8.0 19.3 0.00 0.00 0.00 55 1017.3
20260505152004 28 100 9.7 19.3 0.00 0.00 0.00 56 1017.3